Weather in Krasnoznamenskiy

Russia / Saratov Oblast     51°20′55″N   43°22′23″E
temp.,
°C
wind,
m/s
gust,
m/s
humid.,
%
clouds,
%
prec.,
mm/h
press.,
hPa
HPBL,
m
17 september, fri
fri1701:00+6n22785 0.0 101922
04:00+5nnw22839 0.0 102010
07:00+5nnw11865 0.0 102010
10:00+11ene1158100 0.0 1019513
13:00+15ssw244581 0.0 10181525
16:00+17wsw353599 0.0 10162042
19:00+13nne4650100 0.0 1016124
22:00+10ene5855100 0.0 1017359
18 september, sat
sat1801:00+9e4665100 0.1 1018247
04:00+7ne4677100 0.7 1019323
07:00+7e3773100 0.3 1020303
10:00+10ene5651100 0.3 1020752
13:00+13e4439100 0.0 10201176
16:00+14ese233499 0.0 10201451
19:00+10wsw3351100 0.0 1020127
22:00+10ssw1155100 0.0 102173
19 september, sun
sun1901:00+11e4846100 0.0 1021549
04:00+10ese51040100 0.1 1021528
07:00+10ese51140100 0.0 1021450
10:00+12ese71036100 0.0 1021613
13:00+16ese8103394 0.0 10191215
16:00+15se71036100 0.0 1019995
19:00+15ese81237100 0.0 10171012
22:00+11ese91765100 1.2 1017591
20 september, mon
mon2001:00+11ese81760100 0.5 1016652
04:00+10se91667100 2.3 1015715
07:00+9ese71591100 6.1 1014684
10:00+10se71283100 8.4 1015644
13:00+11se81281100 0.1 1015503
16:00+13ese81160100 0.1 1015654
19:00+12ese81270100 0.0 1015499
22:00+9se71485100 1.6 1016446
21 september, tue
tue2101:00+9ese71292100 5.2 1015413
04:00+9ese5989100 6.6 1015326
07:00+9ese4789100 0.0 1014244
10:00+12sse3478100 0.3 1014324
13:00+16ssw3370100 0.1 1014895
16:00+16wsw3467100 0.4 10131148
19:00+13w33778 0.3 101469
22:00+10w33805 0.3 101435